Back to catalog

CZ-6A DEB

AlivePO
NORAD 60840·DEBRIS·🇨🇳 China

Launched Aug 6, 2024 from Taiyuan Satellite Launch Center

Loading…

Next Passes (next 24 hours)

TLE

FreshSource: Space-Track

Epoch: Sep 14, 2026, 10:01 UTC

1 60840U 24140HT  26257.41790319  .00003346  00000-0  44139-3 0  9995
2 60840  88.9842 256.2238 0113552 239.2839 119.7157 14.75380977111948

Track CZ-6A DEB in real time with AllMySat

Download on the App Store